Location: 10033 Water Well
(34.0865°N, 106.8959°W)
Time: 17:18:34
(UTC+00:00)

Cosmos 2327 Rocket - Pass Details

Date: 13 January 2026
Orbit: 942 x 1008 km, 83.0° (Epoch: 10 February)

Event Time Altitude Azimuth Distance (km) Brightness Sun altitude
Rises 00:51:50 0° 355° (N) 3,695 7.4 -7.1°
Reaches altitude 10° 00:54:23 10° 356° (N) 2,734 6.7 -7.6°
Maximum altitude 01:00:39 82° 84° (E) 979 4.5 -8.8°
Drops below altitude 10° 01:06:47 10° 172° (S) 2,674 7.0 -10.0°
Sets 01:09:15 0° 173° (S) 3,609 7.6 -10.5°
